STARLINK-35596 (66086 NORAD) Tracking and Keplerian Element Data

This shows tracking and keplerian element data for the satellite.

Feedback or suggestion? Click here.




ElementValue
Catalog66086
NameSTARLINK-35596
Epoch Orbit1068
Epoch Day353.63658882
Epoch Year2025
RAAN116.0339
Inclination53.1589
Eccentricity9.8E-05
Argument of Perigee82.5937
Mean Anonmoly277.5175
Mean Motion15.30200391
Decay Rate0.0001873
L11 66086U 25236A 25353.63658882 .00018730 00000+0 64291-3 0 9991
L22 66086 53.1589 116.0339 0000980 82.5937 277.5175 15.30200391 10686



Live tracking and technical data element details for STARLINK-35596 (NORAD 66086). STARLINK-35596 can be tracked NOW for your location showing map with azimuth and elevation plus other details from your city location.







IsCatalogInMostPopularTable: catalog: 66086, numindb: 3
Update: records affected: 1



GetName: 66086 STARLINK-35596

Hit Count: updated at: Mon, 09 Feb 2026 07:52:06 GMT